KLM14D EHAM-EBBR

Flight info

Callsign KLM14D
Flight time 0h 25m
Altitude 12000
Route WOODY
Aircraft B78X/H-SDE1E2E3FGHIJ2J3J4J5M1RWXY/LB1D1

Departure

Time 2026-04-18 10:09
Airport Amsterdam Airport Schiphol (EHAM)

Arrival

Time 2026-04-18 10:35
Airport Brussels Airport (EBBR)
Time Latitude Longitude Altitude Speed Heading
2026-04-18 09:44 52.31299 4.75816 5 ft 0 kts 267°
2026-04-18 09:56 52.31300 4.75818 5 ft 2 kts 267°
2026-04-18 09:57 52.31299 4.75845 6 ft 2 kts 283°
2026-04-18 09:57 52.31296 4.75871 6 ft 2 kts 295°
2026-04-18 09:57 52.31288 4.75895 7 ft 2 kts 310°
2026-04-18 09:57 52.31276 4.75914 7 ft 2 kts 326°
2026-04-18 09:58 52.31262 4.75927 8 ft 2 kts 339°
2026-04-18 09:58 52.31246 4.75935 6 ft 2 kts 349°
2026-04-18 09:58 52.31231 4.75939 5 ft 2 kts 356°
2026-04-18 09:58 52.31225 4.75940 5 ft 0 kts 358°
2026-04-18 10:01 52.31231 4.75939 5 ft 2 kts 358°
2026-04-18 10:01 52.31265 4.75937 5 ft 8 kts 357°
2026-04-18 10:02 52.31342 4.75930 5 ft 14 kts 357°
2026-04-18 10:02 52.31434 4.75953 5 ft 10 kts 36°
2026-04-18 10:02 52.31449 4.76026 5 ft 7 kts 83°
2026-04-18 10:02 52.31455 4.76152 5 ft 15 kts 86°
2026-04-18 10:03 52.31463 4.76377 5 ft 24 kts 87°
2026-04-18 10:03 52.31471 4.76675 5 ft 27 kts 87°
2026-04-18 10:03 52.31480 4.76985 5 ft 28 kts 87°
2026-04-18 10:03 52.31428 4.77263 5 ft 26 kts 131°
2026-04-18 10:04 52.31305 4.77471 5 ft 25 kts 141°
2026-04-18 10:04 52.31158 4.77497 5 ft 18 kts 184°
2026-04-18 10:04 52.31049 4.77485 5 ft 16 kts 184°
2026-04-18 10:04 52.30934 4.77473 5 ft 17 kts 184°
2026-04-18 10:05 52.30816 4.77465 5 ft 17 kts 183°
2026-04-18 10:05 52.30729 4.77458 5 ft 11 kts 183°
2026-04-18 10:05 52.30659 4.77467 5 ft 8 kts 164°
2026-04-18 10:05 52.30612 4.77505 5 ft 8 kts 152°
2026-04-18 10:06 52.30591 4.77524 5 ft 1 kts 152°
2026-04-18 10:06 52.30585 4.77529 5 ft 1 kts 153°
2026-04-18 10:06 52.30571 4.77540 5 ft 4 kts 153°
2026-04-18 10:06 52.30536 4.77569 5 ft 7 kts 153°
2026-04-18 10:07 52.30486 4.77610 5 ft 9 kts 154°
2026-04-18 10:07 52.30432 4.77632 5 ft 5 kts 189°
2026-04-18 10:07 52.30402 4.77596 4 ft 8 kts 227°
2026-04-18 10:07 52.30392 4.77573 4 ft 0 kts 234°
2026-04-18 10:08 52.30386 4.77558 4 ft 6 kts 234°
2026-04-18 10:08 52.30326 4.77408 4 ft 33 kts 238°
2026-04-18 10:09 52.30042 4.76661 4 ft 121 kts 237°
2026-04-18 10:09 52.29460 4.75140 169 ft 180 kts 241°
2026-04-18 10:09 52.28824 4.73414 1398 ft 174 kts 240°
2026-04-18 10:09 52.28194 4.71737 2341 ft 178 kts 239°
2026-04-18 10:10 52.27426 4.70004 2961 ft 197 kts 235°
2026-04-18 10:10 52.26576 4.68261 4010 ft 198 kts 227°
2026-04-18 10:10 52.25503 4.67140 4694 ft 216 kts 205°
2026-04-18 10:10 52.23980 4.67352 5758 ft 234 kts 162°
2026-04-18 10:11 52.22637 4.68956 6817 ft 245 kts 137°
2026-04-18 10:11 52.21404 4.70822 7752 ft 246 kts 146°
2026-04-18 10:11 52.20016 4.72450 8695 ft 246 kts 153°
2026-04-18 10:11 52.18498 4.73759 9646 ft 248 kts 159°
2026-04-18 10:12 52.16907 4.74850 10524 ft 249 kts 169°
2026-04-18 10:12 52.15172 4.75505 11087 ft 265 kts 172°
2026-04-18 10:12 52.13305 4.76166 11585 ft 284 kts 171°
2026-04-18 10:12 52.11350 4.76918 12038 ft 305 kts 171°
2026-04-18 10:13 52.09191 4.77771 12215 ft 337 kts 170°
2026-04-18 10:13 52.06857 4.78684 12216 ft 348 kts 170°
2026-04-18 10:13 52.04505 4.79596 12213 ft 354 kts 170°
2026-04-18 10:13 52.02121 4.80518 12213 ft 353 kts 170°
2026-04-18 10:14 51.99714 4.81073 12218 ft 348 kts 184°
2026-04-18 10:14 51.97341 4.80448 12215 ft 344 kts 201°
2026-04-18 10:14 51.95178 4.78878 12218 ft 341 kts 208°
2026-04-18 10:14 51.93033 4.77204 12213 ft 342 kts 207°
2026-04-18 10:15 51.90886 4.75542 12213 ft 342 kts 208°
2026-04-18 10:15 51.88743 4.73864 12213 ft 343 kts 208°
2026-04-18 10:15 51.86636 4.72209 12212 ft 341 kts 208°
2026-04-18 10:15 51.84489 4.70532 12213 ft 342 kts 208°
2026-04-18 10:16 51.82349 4.68866 12219 ft 342 kts 208°
2026-04-18 10:16 51.80202 4.67193 12218 ft 343 kts 208°
2026-04-18 10:16 51.78060 4.65525 12212 ft 342 kts 208°
2026-04-18 10:16 51.76057 4.63968 12214 ft 341 kts 208°
2026-04-18 10:17 51.73908 4.62298 12212 ft 342 kts 208°
2026-04-18 10:17 51.71762 4.60633 12210 ft 342 kts 208°
2026-04-18 10:17 51.69623 4.58975 12211 ft 342 kts 207°
2026-04-18 10:17 51.67476 4.57313 12212 ft 342 kts 207°
2026-04-18 10:18 51.65337 4.55658 12210 ft 342 kts 207°
2026-04-18 10:18 51.63220 4.54025 12209 ft 342 kts 207°
2026-04-18 10:18 51.61077 4.52374 12211 ft 342 kts 207°
2026-04-18 10:18 51.58937 4.50725 12209 ft 343 kts 207°
2026-04-18 10:19 51.56783 4.49068 12209 ft 342 kts 207°
2026-04-18 10:19 51.54641 4.47423 12209 ft 341 kts 207°
2026-04-18 10:19 51.52511 4.45788 12209 ft 341 kts 207°
2026-04-18 10:19 51.50357 4.44135 12206 ft 341 kts 207°
2026-04-18 10:20 51.48213 4.42493 12203 ft 342 kts 207°
2026-04-18 10:20 51.46064 4.40848 12206 ft 342 kts 207°
2026-04-18 10:20 51.43946 4.39229 12205 ft 342 kts 207°
2026-04-18 10:20 51.41797 4.37588 12204 ft 342 kts 207°
2026-04-18 10:21 51.39646 4.35947 12203 ft 342 kts 207°
2026-04-18 10:21 51.37506 4.34316 12203 ft 342 kts 207°
2026-04-18 10:21 51.35354 4.32675 12202 ft 342 kts 207°
2026-04-18 10:21 51.33201 4.31037 12043 ft 346 kts 207°
2026-04-18 10:22 51.30895 4.29854 11461 ft 350 kts 189°
2026-04-18 10:22 51.28557 4.29905 11177 ft 319 kts 173°
2026-04-18 10:22 51.26536 4.30845 11057 ft 288 kts 160°
2026-04-18 10:22 51.24904 4.32363 10932 ft 267 kts 147°
2026-04-18 10:23 51.23682 4.34157 10834 ft 273 kts 135°
2026-04-18 10:23 51.22572 4.36723 10767 ft 288 kts 121°
2026-04-18 10:23 51.21624 4.39568 10662 ft 289 kts 122°
2026-04-18 10:23 51.20689 4.42355 10411 ft 282 kts 121°
2026-04-18 10:24 51.19760 4.45126 10132 ft 286 kts 121°
2026-04-18 10:24 51.18901 4.47959 9848 ft 282 kts 110°
2026-04-18 10:24 51.18379 4.50931 9571 ft 275 kts 110°
2026-04-18 10:24 51.17796 4.53808 9222 ft 272 kts 111°
2026-04-18 10:25 51.17231 4.56624 8887 ft 268 kts 110°
2026-04-18 10:25 51.16680 4.59484 8530 ft 266 kts 109°
2026-04-18 10:25 51.16150 4.62252 8192 ft 264 kts 109°
2026-04-18 10:25 51.15610 4.65039 7770 ft 263 kts 109°
2026-04-18 10:26 51.15073 4.67788 7290 ft 259 kts 109°
2026-04-18 10:26 51.14539 4.70517 6935 ft 261 kts 109°
2026-04-18 10:26 51.14004 4.73269 6577 ft 258 kts 109°
2026-04-18 10:26 51.13474 4.75986 6237 ft 256 kts 109°
2026-04-18 10:27 51.12945 4.78689 5895 ft 254 kts 109°
2026-04-18 10:27 51.12408 4.81353 5567 ft 251 kts 113°
2026-04-18 10:27 51.11416 4.83503 5228 ft 244 kts 143°
2026-04-18 10:27 51.09929 4.84652 4910 ft 237 kts 171°
2026-04-18 10:28 51.08318 4.85045 4632 ft 231 kts 174°
2026-04-18 10:28 51.06765 4.85381 4321 ft 221 kts 175°
2026-04-18 10:28 51.05263 4.85707 4035 ft 216 kts 174°
2026-04-18 10:28 51.03788 4.86038 3742 ft 213 kts 174°
2026-04-18 10:29 51.02335 4.86295 3460 ft 206 kts 181°
2026-04-18 10:29 51.01025 4.85597 3158 ft 196 kts 214°
2026-04-18 10:29 50.99993 4.84276 2946 ft 186 kts 221°
2026-04-18 10:29 50.98991 4.82920 2673 ft 187 kts 221°
2026-04-18 10:30 50.98004 4.81595 2432 ft 187 kts 221°
2026-04-18 10:30 50.97031 4.80302 2183 ft 184 kts 220°
2026-04-18 10:30 50.96181 4.78830 1988 ft 181 kts 235°
2026-04-18 10:30 50.95627 4.77081 1968 ft 179 kts 248°
2026-04-18 10:31 50.95173 4.75251 1984 ft 178 kts 249°
2026-04-18 10:31 50.94746 4.73394 1993 ft 178 kts 249°
2026-04-18 10:31 50.94320 4.71548 1964 ft 173 kts 249°
2026-04-18 10:31 50.93892 4.69698 1983 ft 178 kts 249°
2026-04-18 10:32 50.93491 4.67947 1955 ft 160 kts 249°
2026-04-18 10:32 50.93111 4.66303 1979 ft 160 kts 249°
2026-04-18 10:32 50.92722 4.64638 1816 ft 160 kts 249°
2026-04-18 10:32 50.92343 4.62944 1604 ft 166 kts 249°
2026-04-18 10:33 50.91959 4.61270 1351 ft 155 kts 250°
2026-04-18 10:33 50.91606 4.59746 1181 ft 152 kts 250°
2026-04-18 10:33 50.91255 4.58234 950 ft 144 kts 248°
2026-04-18 10:33 50.90903 4.56750 766 ft 145 kts 250°
2026-04-18 10:34 50.90555 4.55280 525 ft 141 kts 252°
2026-04-18 10:34 50.90222 4.53798 361 ft 143 kts 253°
2026-04-18 10:34 50.89901 4.52319 224 ft 144 kts 252°
2026-04-18 10:34 50.89590 4.50976 181 ft 101 kts 249°
2026-04-18 10:35 50.89421 4.50258 182 ft 46 kts 250°
2026-04-18 10:35 50.89351 4.49933 183 ft 19 kts 253°
2026-04-18 10:35 50.89342 4.49800 183 ft 13 kts 273°
2026-04-18 10:35 50.89406 4.49590 175 ft 35 kts 311°
2026-04-18 10:36 50.89481 4.49461 170 ft 2 kts 311°
2026-04-18 10:36 50.89521 4.49368 169 ft 17 kts 300°
2026-04-18 10:36 50.89583 4.49247 162 ft 0 kts 341°
2026-04-18 10:38 50.89584 4.49247 162 ft 1 kts 342°
2026-04-18 10:38 50.89597 4.49212 161 ft 9 kts 298°
2026-04-18 10:38 50.89653 4.49158 158 ft 12 kts 355°
2026-04-18 10:39 50.89774 4.49193 151 ft 23 kts 12°
2026-04-18 10:39 50.89966 4.49272 140 ft 32 kts 16°
2026-04-18 10:39 50.90185 4.49365 135 ft 33 kts 14°
2026-04-18 10:39 50.90346 4.49430 126 ft 8 kts 14°
2026-04-18 10:40 50.90395 4.49431 127 ft 3 kts 338°
2026-04-18 10:40 50.90402 4.49415 126 ft 2 kts 304°
2026-04-18 10:40 50.90409 4.49346 126 ft 9 kts 261°
2026-04-18 10:40 50.90366 4.49198 126 ft 20 kts 245°
2026-04-18 10:41 50.90299 4.48964 126 ft 25 kts 245°
2026-04-18 10:41 50.90226 4.48714 128 ft 23 kts 244°
2026-04-18 10:41 50.90214 4.48642 126 ft 3 kts 276°
2026-04-18 10:41 50.90217 4.48633 126 ft 0 kts 292°
2026-04-18 10:42 50.90217 4.48632 127 ft 0 kts 291°
2026-04-18 10:42 50.90218 4.48629 127 ft 1 kts 292°
2026-04-18 10:42 50.90215 4.48615 125 ft 3 kts 256°
2026-04-18 10:42 50.90187 4.48560 125 ft 9 kts 231°
2026-04-18 10:43 50.90160 4.48478 127 ft 9 kts 245°
2026-04-18 10:43 50.90146 4.48430 125 ft 1 kts 244°
2026-04-18 10:43 50.90141 4.48415 128 ft 2 kts 243°
2026-04-18 10:43 50.90131 4.48382 125 ft 3 kts 249°
2026-04-18 10:44 50.90133 4.48359 125 ft 4 kts 275°
2026-04-18 10:44 50.90146 4.48331 126 ft 4 kts 316°
2026-04-18 10:44 50.90175 4.48310 123 ft 5 kts 336°
2026-04-18 10:44 50.90184 4.48304 127 ft 0 kts 336°